Powrót do katalogu

STARLINK-30951

AktywnyŁącznośćVLEO
NORAD 58439·PAYLOAD·🇺🇸 United States

Wystrzelony Nov 28, 2023 z Cape Canaveral Space Force Station

Loading…

Następne Przeloty (najbliższe 24 godziny)

TLE

ŚwieżeSource: CelesTrak SupGP

Epoka: Sep 14, 2026, 22:16 UTC

1 58439C 23183C   26257.92826389  .00058773  00000+0  21285-2 0  2571
2 58439  43.0008  53.0398 0001498 274.1315 110.3825 15.27552769    19

Śledź STARLINK-30951 w czasie rzeczywistym z AllMySat

Download on the App Store